Regional Weather Roundup
Issued by NWS Northern Indiana

Home | Current Version | Previous Version | Text Only | Print | Product List | Glossary Off
Versions: 1 2 3 4 5 6 7 8 9 10 11 12 13 14 15 16 17 18 19 20 21 22 23 24 25 26 27 28 29 30 31 32 33 34 35 36 37 38 39 40 41 42 43 44 45 46 47 48 49 50

000
ASUS43 KIWX 172010
RWRIWX

KIWX WEATHER ROUNDUP
NATIONAL WEATHER SERVICE NORTHERN INDIANA
300 PM EST TUE JAN 17 2017

NOTE: "FAIR" INDICATES FEW OR NO CLOUDS BELOW 12,000 FEET WITH NO
SIGNIFICANT WEATHER AND/OR OBSTRUCTIONS TO VISIBILITY.

* THESE STATIONS ARE NOT UNDER NWS QUALITY CONTROL. THEY ALSO MAY NOT
  REPORT WEATHER SUCH AS PRECIPITATION OR FOG.

INZ001>027-172100-
NORTHERN INDIANA

CITY           SKY/WX    TMP DP  RH WIND       PRES   REMARKS
GARY*          CLOUDY    39  37  93 W14       29.89R
VALPARAISO     LGT RAIN  40  39  97 SW14      29.89R FOG
LAPORTE*       CLOUDY    39  38  97 W9        29.88R
KNOX*          CLOUDY    37  32  81 W13       29.89R
SOUTH BEND     CLOUDY    40  39  97 SW7       29.87R
ELKHART*       CLOUDY    39  39 100 W8        29.85R
GOSHEN         FOG       41  38  89 W12       29.86R VSB 1
ROCHESTER*     CLOUDY    43  43 100 W14       29.90R FOG
WARSAW*        CLOUDY    41  37  87 W14       29.87R FOG
FORT WAYNE     DRIZZLE   44  42  93 W17       29.88R FOG
PERU/GRISSOM   DRIZZLE   43  43 100 W15       29.89R FOG
MARION*        CLOUDY    45  43  93 W21       29.91R FOG

$$
INZ028>050-172100-
CENTRAL INDIANA

CITY           SKY/WX    TMP DP  RH WIND       PRES   REMARKS
LAFAYETTE      CLOUDY    43  41  93 W12       29.93R
KOKOMO*        LGT RAIN  43  43 100 W18       29.92R FOG
MUNCIE*        CLOUDY    48  41  76 W14G23    29.91R
INDIANAPOLIS   CLOUDY    46  41  82 W20       29.93S

$$
MIZ043>046-050>051-056>058-064>065-071>073-077>080-172100-
SOUTHWEST LOWER MICHIGAN

CITY           SKY/WX    TMP DP  RH WIND       PRES   REMARKS
BATTLE CREEK   CLOUDY    39  39 100 W12       29.81R FOG
BENTON HARBOR  CLOUDY    39  37  92 W10       29.86R FOG
COLDWATER*     CLOUDY    41  41 100 W13       29.82R FOG
HILLSDALE*     FOG       39  39 100 SW13G18   29.79R VSB 1
HOLLAND        FOG       37  36  96 W7        29.82R VSB 1/2
GRAND RAPIDS   DRZL/FOG  37  35  92 CALM      29.79R VSB 3/4
KALAMAZOO      CLOUDY    39  36  89 W10       29.83R FOG
STURGIS*       CLOUDY    40  40  99 W10       29.83R FOG
THREE RIVERS*  CLOUDY    39  38  98 W7        29.85R FOG

$$
OHZ001>008-015>018-024>025-172100-
NORTHWEST OHIO

CITY           SKY/WX    TMP DP  RH WIND       PRES   REMARKS
DEFIANCE       CLOUDY    48  43  82 W10G20    29.85R
FINDLAY        CLOUDY    53  44  71 W14       29.83R
TOLEDO EXPRESS CLOUDY    47  45  93 SW23G32   29.81R
TOLEDO METCALF CLOUDY    50  46  86 SW22G28   29.81R
LIMA           CLOUDY    53  47  79 W25       29.85R

$$
AND FOR LAKE MICHIGAN COASTAL AND OPEN LAKE BUOY OBSERVATIONS

STATION/POSITION TEMP    WIND        PRES    VSBY  WAVE
                 AIR SEA DIR/SP/G                  HT/PER
                 (F)     (DEG/KT/KT) (MB)    (MI)  (FT/S)
CALUMET HARBOR    38     220/  8/ 14 1011.4R
BURNS HARBOR      37     240/ 11/ 12 1012.5R

$$
&&




USA.gov is the U.S. government's official web portal to all federal, state and local government web resources and services.